Wind_Speed
6 5 5 1 2 2 7 12 15 4 11 14 9 7 10 6 4 6 2 5 8 6 3 5 3 5 3 1 13 15 9 6 5 5 4 6 9 10 7 4 5 5 4 3 4 4 4 3 3
6 4 4 1 2 6 5 7 6 13 14 11 13 9 7 8 5 2 4 4 7 5 7 5 2 1 4 7 9 10 4 2 5 9 7 7 7 5 6 4 5 5 5 5 7 6 4 3 2
6 6 4 2 3 3 10 2 2 5 11 16 13 10 5 7 5 3 2 4 7 6 5 4 4 2 5 7 8 6 3 0 3 8 8 4 6 3 4 4 5 5 6 7 6 3 3 2 1
6 5 2 0 5 6 8 3 7 8 10 13 11 9 7 6 4 2 2 3 7 8 8 6 6 6 5 7 6 5 3 1 3 6 7 5 5 4 1 3 3 4 5 6 5 2 3 0 1
5 7 3 4 3 10 6 10 10 12 10 9 10 10 11 6 6 5 3 2 5 7 8 8 7 7 8 8 6 7 4 3 3 4 5 3 5 3 3 3 3 6 5 7 4 4 4 2 2
8 4 3 4 4 13 12 13 8 7 9 9 7 13 10 6 9 4 3 3 4 5 7 7 8 9 8 6 6 7 3 6 3 2 3 6 5 3 6 3 4 4 7 7 7 7 4 4 6
3 1 7 5 3 8 10 10 7 6 10 16 9 12 11 8 8 5 4 3 3 4 4 6 7 8 7 8 7 5 6 7 3 2 4 6 2 6 1 4 3 3 6 5 6 7 6 7 10
3 3 5 13 6 7 12 10 9 9 9 17 7 12 11 11 10 4 3 2 4 4 1 6 5 8 8 8 8 6 8 7 4 0 2 5 3 2 4 3 1 4 4 4 6 7 5 9 12
2 8 7 6 5 6 10 9 10 13 15 16 9 9 13 11 13 6 3 2 4 3 2 4 7 9 8 9 9 9 6 3 1 1 2 4 2 5 7 5 1 3 5 6 7 7 8 8 14
6 5 11 13 10 7 9 8 13 12 15 12 6 8 9 7 12 8 2 3 4 3 2 3 5 9 9 9 9 10 8 3 1 2 3 5 7 7 6 6 6 8 4 6 9 8 5 8 17
9 10 10 6 12 10 9 10 9 10 11 6 9 10 9 6 10 10 6 3 4 2 4 4 5 6 7 9 10 11 6 5 4 2 1 12 8 8 8 5 4 7 7 7 8 8 4 7 14
6 9 10 12 10 13 10 11 10 12 7 11 2 8 7 8 9 10 5 4 4 4 4 5 6 7 7 12 9 9 5 3 4 7 4 10 7 6 6 10 11 9 4 7 5 3 5 7 12
6 12 14 8 11 10 11 7 9 7 1 2 8 9 4 8 7 7 5 3 3 4 5 1 3 5 4 9 7 7 7 3 1 7 10 11 7 4 4 5 4 6 8 7 2 8 8 12 15
8 9 9 13 11 10 12 9 10 6 13 13 13 14 8 9 10 7 4 4 3 5 4 4 3 2 3 8 4 6 5 5 5 6 7 7 6 10 4 4 7 5 9 7 1 13 13 11 12
5 9 11 2 6 14 13 9 11 12 11 11 11 12 13 10 14 7 2 4 3 3 5 5 5 4 2 6 7 6 9 6 10 4 3 7 8 8 9 12 1 10 11 7 9 16 15 14 14
15 16 23 18 13 11 9 14 12 13 13 14 13 12 14 15 15 13 10 6 4 6 6 6 5 4 3 7 12 11 10 13 11 7 2 12 7 8 2 5 8 10 10 9 15 12 11 9 17
11 20 19 18 21 18 9 11 13 12 14 18 16 12 15 14 11 10 6 8 6 4 7 5 3 3 3 5 10 14 12 14 13 11 8 5 8 7 5 13 7 7 6 3 12 16 11 11 14
13 14 22 27 27 23 16 6 10 9 12 14 12 9 4 7 7 10 6 6 5 3 5 4 4 2 3 4 10 16 17 18 16 15 12 7 10 8 5 4 7 7 6 3 6 8 8 9 12
8 21 14 21 26 25 26 18 12 10 11 8 8 8 10 13 8 8 6 5 4 2 4 4 5 0 2 5 11 14 17 15 15 16 11 10 11 11 5 1 6 3 6 1 3 7 10 10 10
7 12 13 7 24 30 22 15 24 19 16 17 11 6 6 7 5 8 5 4 3 1 2 4 4 1 2 3 13 11 11 7 6 10 10 14 13 9 12 4 12 3 6 3 2 6 10 7 6
11 9 3 3 21 26 26 15 18 21 15 5 15 1 6 4 8 11 3 2 5 1 1 3 4 2 1 5 12 10 9 8 7 9 11 11 13 13 14 9 7 11 5 2 2 5 12 10 4
12 8 10 19 22 22 18 11 17 22 23 23 20 1 6 7 7 7 4 3 6 3 2 3 5 4 4 4 7 10 9 7 7 10 7 7 8 17 14 7 4 5 3 4 6 5 7 6 8
16 13 16 11 11 16 3 14 13 21 21 20 23 2 7 4 5 4 2 4 6 4 5 2 4 5 5 5 6 8 7 9 1 8 8 8 9 13 13 8 9 5 4 2 5 3 4 4 10
18 18 18 12 6 1 4 15 23 26 6 13 15 8 13 2 8 2 5 11 8 8 4 3 5 5 5 6 5 5 6 6 6 6 8 9 10 12 15 14 13 11 9 6 3 3 4 2 11
20 24 18 13 12 18 18 18 25 19 23 17 16 12 4 3 6 3 2 2 11 7 4 7 5 7 8 6 6 5 6 5 6 6 8 9 12 14 13 15 13 10 7 6 5 3 2 2 2
18 22 20 12 6 12 18 21 22 18 13 18 22 19 22 9 3 5 4 4 3 6 7 7 9 7 7 9 9 9 8 8 8 5 10 11 10 9 12 13 13 14 12 10 6 5 4 2 1
15 20 13 15 17 12 7 21 11 4 5 4 27 28 21 17 7 4 4 9 2 9 13 6 12 10 8 9 10 9 8 8 6 8 11 11 8 11 14 11 14 15 17 14 11 9 8 5 4
23 14 17 11 9 10 5 13 17 20 18 26 29 28 11 18 13 9 8 10 12 9 15 13 15 14 11 12 12 10 8 6 6 6 9 10 12 11 11 10 11 13 17 18 16 12 11 9 8
20 17 22 22 19 18 16 16 14 17 20 23 30 32 35 9 14 9 7 13 14 13 15 17 18 17 14 14 16 13 9 7 7 7 8 8 9 12 13 13 14 12 15 19 21 17 14 15 12
15 23 19 22 21 23 24 17 18 21 22 23 22 21 10 9 12 8 8 12 14 16 14 18 19 19 16 19 19 18 14 12 10 9 8 9 8 8 11 13 15 15 15 16 19 21 20 19 16
Wind_Direction
129 127 106 112 106 237 289 273 95 354 327 343 346 343 352 353 309 325 305 313 303 323 264 273 85 112 56 340 156 118 83 65 68 74 68 60 54 62 50 31 33 23 38 18 17 14 40 358 318
151 151 135 176 254 296 288 61 93 13 324 323 348 2 3 329 336 291 300 325 305 308 170 92 92 107 143 127 109 99 92 51 59 49 40 53 55 51 19 23 23 9 11 346 352 6 37 340 333
154 157 129 279 273 278 300 182 38 19 314 300 360 1 1 338 4 329 319 300 294 289 257 247 236 231 152 167 156 149 165 279 4 31 36 61 36 22 5 9 35 24 360 344 354 23 26 340 242
180 151 137 245 345 279 9 166 307 313 314 304 353 348 344 12 352 351 295 312 298 282 277 257 223 220 184 185 205 196 227 272 349 30 55 51 41 358 306 327 58 52 23 27 34 33 4 312 213
206 223 353 6 307 69 34 326 277 278 291 290 334 337 341 7 358 352 15 357 293 284 273 261 220 227 204 202 207 201 224 276 320 18 29 19 10 239 230 274 108 61 46 16 21 36 18 65 358
220 213 48 319 332 345 356 357 327 254 298 307 358 340 337 353 343 356 54 358 292 281 265 248 225 224 215 197 199 212 240 244 274 341 331 346 337 267 186 177 116 46 7 15 35 40 26 39 41
197 325 317 310 311 326 339 4 11 324 322 306 320 332 330 358 341 346 39 359 342 296 255 234 217 219 222 208 214 208 242 211 233 311 6 8 21 116 81 142 141 342 350 36 47 53 44 42 54
156 74 36 322 270 317 326 331 328 316 282 294 301 318 328 339 337 360 23 35 340 325 255 236 221 215 219 209 206 205 214 202 201 269 18 360 74 118 133 120 115 3 347 86 55 40 55 52 65
40 257 330 10 305 307 311 305 294 295 294 287 286 307 317 330 329 346 16 347 21 329 262 216 204 210 219 216 198 210 229 233 217 139 255 350 190 173 151 172 87 61 108 73 66 41 52 65 77
326 32 329 330 335 347 306 301 289 290 295 317 299 280 304 323 324 331 4 346 350 325 292 229 220 216 220 219 195 207 218 231 244 205 231 167 213 183 156 149 102 88 89 67 59 49 85 89 77
335 301 296 331 328 325 312 306 300 287 286 282 264 295 303 327 326 327 327 5 310 286 288 267 252 224 224 219 199 207 204 215 219 188 194 188 214 165 164 146 120 87 74 71 72 48 58 118 84
286 285 327 297 320 330 331 323 303 295 266 296 301 294 300 327 337 332 331 288 305 301 279 250 267 276 247 223 201 214 190 206 240 202 207 205 199 202 195 131 93 131 66 80 86 73 73 29 69
308 259 295 32 11 330 318 322 314 302 76 265 326 279 351 323 356 336 323 281 283 280 263 203 279 293 237 172 203 190 183 180 199 234 197 220 207 210 146 101 136 98 94 83 124 86 62 81 83
304 325 317 356 334 326 347 326 330 348 320 322 339 297 306 319 338 349 311 303 294 289 279 244 271 302 195 204 193 175 194 190 187 169 201 209 188 198 180 279 219 114 109 85 48 132 91 81 81
351 314 303 287 334 333 355 333 346 356 346 345 308 329 303 317 314 325 309 227 271 283 269 223 220 196 182 191 185 201 165 186 175 179 223 202 204 213 201 136 129 134 119 119 114 101 98 106 93
20 348 339 4 10 326 337 325 335 338 344 336 325 306 296 295 319 327 348 327 285 312 310 239 221 214 216 212 201 174 176 168 159 180 231 210 200 218 186 115 117 137 142 157 94 96 120 97 97
26 354 341 345 325 350 343 320 330 327 340 341 335 299 281 265 297 300 320 302 282 270 277 255 249 252 247 218 196 191 183 179 182 194 205 150 212 230 111 124 118 145 124 124 100 121 116 92 100
2 331 341 327 318 346 313 296 311 334 339 338 338 295 270 324 299 292 311 298 297 271 265 250 260 225 276 243 197 189 187 197 203 217 212 193 220 195 110 91 119 150 165 136 120 91 79 90 121
341 319 287 299 319 321 337 331 284 258 288 328 10 332 304 298 299 287 278 344 337 126 183 209 237 278 308 302 171 181 174 184 196 202 217 217 228 213 151 77 183 224 208 222 139 134 96 94 103
224 272 297 243 306 311 307 340 341 332 327 320 302 62 354 261 290 283 282 283 322 141 204 230 216 184 31 111 145 152 158 178 210 215 202 205 198 215 188 223 133 89 175 161 299 155 123 148 137
294 306 324 289 291 295 306 306 333 339 350 344 296 50 48 86 261 246 280 307 272 239 167 210 213 156 99 135 145 149 156 166 190 185 170 205 228 202 194 164 63 110 100 68 134 110 126 161 134
295 270 270 263 274 299 290 289 316 315 313 341 262 312 89 346 33 171 47 284 272 264 228 204 203 165 153 153 162 167 170 182 210 203 198 201 206 181 204 177 130 110 65 40 77 159 127 135 83
300 270 277 285 288 297 263 296 299 304 303 335 340 316 340 102 53 127 229 290 271 270 247 243 225 185 160 155 173 169 178 182 161 219 213 199 197 184 197 183 144 151 144 116 79 131 139 143 108
290 287 278 277 278 331 308 290 308 330 281 346 342 212 315 17 115 137 157 214 250 256 256 222 225 184 189 158 182 181 177 199 203 212 208 206 209 206 200 204 187 180 178 167 132 95 76 63 118
283 281 277 253 252 307 322 335 343 339 333 347 352 349 352 224 35 132 151 191 171 218 252 206 216 186 199 194 201 204 220 214 234 225 236 227 212 216 211 219 213 199 202 201 177 177 118 75 14
293 267 262 247 254 284 301 331 329 317 349 349 351 343 340 339 47 331 342 264 192 203 252 209 206 198 199 200 203 200 203 208 221 206 223 229 227 231 232 222 224 218 215 217 219 216 203 195 310
310 268 274 247 249 274 319 320 239 307 323 3 322 322 315 315 340 318 295 291 257 209 235 201 212 204 214 236 214 202 197 192 197 219 231 225 222 231 235 228 232 222 225 222 228 227 236 223 252
297 283 245 229 254 283 219 303 308 305 277 295 312 306 188 294 304 318 317 298 273 233 221 224 212 217 223 233 237 218 203 206 195 204 232 242 243 239 247 241 248 234 230 227 229 230 233 237 244
285 296 254 252 213 241 236 240 294 283 288 287 294 322 311 276 293 302 305 275 264 236 206 217 219 222 218 229 233 232 211 214 217 206 228 238 252 247 242 246 243 245 244 233 234 238 243 243 240
232 282 287 257 238 226 241 239 278 290 280 284 287 307 311 271 258 319 290 260 252 223 211 209 220 224 221 225 226 230 229 226 223 218 224 235 256 254 247 249 241 244 246 238 234 235 244 244 243
Height
5904 5904 5905 5907 5908 5906 5905 5902 5895 5904 5904 5903 5904 5904 5904 5904 5902 5904 5902 5903 5903 5904 5906 5907 5907 5906 5906 5906 5904 5906 5908 5908 5910 5910 5910 5910 5910 5909 5909 5909 5909 5907 5905 5905 5905 5904 5901 5899 5896
5903 5904 5905 5906 5908 5906 5902 5890 5902 5902 5905 5903 5904 5905 5905 5904 5903 5902 5902 5902 5902 5904 5906 5908 5908 5907 5907 5907 5907 5909 5910 5910 5910 5909 5910 5910 5911 5911 5910 5910 5908 5907 5907 5906 5906 5904 5902 5899 5896
5904 5905 5907 5907 5907 5906 5905 5896 5902 5903 5905 5901 5905 5905 5905 5905 5901 5902 5901 5901 5902 5903 5904 5907 5908 5908 5908 5909 5909 5911 5911 5912 5911 5910 5912 5912 5912 5911 5911 5909 5908 5907 5906 5905 5905 5905 5904 5900 5898
5904 5906 5908 5907 5906 5904 5903 5906 5906 5904 5903 5903 5905 5904 5903 5904 5899 5902 5901 5901 5901 5903 5903 5905 5906 5907 5909 5909 5911 5912 5912 5912 5912 5913 5913 5912 5912 5912 5911 5910 5909 5908 5907 5907 5906 5905 5903 5899 5898
5904 5906 5906 5904 5902 5875 5900 5905 5903 5902 5903 5903 5904 5903 5902 5902 5900 5899 5900 5902 5901 5902 5902 5903 5905 5906 5908 5909 5909 5911 5912 5913 5913 5914 5914 5913 5914 5912 5910 5911 5910 5910 5909 5908 5907 5905 5902 5899 5899
5904 5905 5905 5904 5903 5899 5901 5902 5900 5902 5902 5899 5905 5903 5903 5901 5900 5900 5901 5902 5901 5901 5901 5902 5904 5905 5907 5908 5909 5911 5912 5913 5914 5915 5915 5914 5911 5908 5910 5912 5913 5913 5911 5910 5909 5907 5903 5901 5902
5902 5903 5904 5905 5904 5904 5903 5903 5902 5901 5900 5898 5903 5902 5901 5901 5900 5900 5899 5900 5900 5899 5900 5901 5903 5905 5906 5908 5909 5911 5912 5912 5914 5915 5915 5914 5911 5911 5912 5913 5914 5913 5911 5911 5909 5907 5904 5903 5905
5902 5904 5904 5905 5904 5903 5903 5903 5901 5901 5901 5897 5902 5900 5900 5899 5899 5901 5899 5900 5898 5899 5899 5900 5902 5903 5904 5906 5908 5910 5911 5911 5913 5915 5914 5915 5914 5912 5914 5914 5913 5913 5912 5911 5910 5907 5903 5905 5906
5902 5904 5902 5901 5903 5902 5901 5901 5901 5900 5898 5897 5900 5900 5898 5897 5896 5897 5898 5898 5898 5898 5898 5899 5900 5902 5903 5905 5906 5908 5910 5911 5913 5914 5914 5915 5914 5912 5912 5913 5913 5912 5912 5911 5910 5906 5907 5906 5905
5900 5901 5905 5902 5901 5901 5900 5899 5899 5899 5896 5896 5898 5899 5897 5896 5896 5895 5896 5897 5897 5898 5898 5898 5900 5900 5902 5904 5905 5907 5910 5911 5913 5913 5913 5913 5910 5911 5913 5914 5913 5913 5913 5912 5912 5909 5906 5907 5907
5902 5900 5902 5902 5900 5901 5901 5899 5898 5895 5895 5896 5898 5898 5896 5896 5895 5895 5893 5895 5897 5898 5898 5897 5897 5900 5901 5903 5906 5907 5910 5911 5911 5911 5910 5909 5911 5914 5916 5915 5913 5913 5913 5916 5913 5909 5908 5908 5903
5904 5900 5897 5898 5900 5900 5898 5896 5894 5894 5894 5895 5897 5899 5895 5897 5895 5895 5895 5894 5894 5896 5897 5898 5897 5898 5900 5902 5905 5907 5909 5909 5909 5908 5908 5911 5910 5912 5914 5914 5917 5913 5914 5916 5915 5909 5907 5905 5905
5901 5898 5898 5892 5899 5899 5897 5894 5894 5895 5896 5896 5896 5899 5893 5895 5896 5896 5894 5895 5895 5895 5896 5897 5897 5897 5899 5901 5903 5905 5907 5909 5908 5907 5907 5908 5911 5912 5912 5912 5915 5914 5915 5918 5918 5911 5910 5910 5910
5899 5900 5899 5897 5901 5899 5895 5894 5894 5894 5894 5893 5892 5891 5892 5893 5896 5897 5892 5894 5894 5894 5896 5896 5896 5896 5898 5900 5901 5904 5906 5907 5908 5907 5906 5908 5911 5913 5913 5906 5913 5913 5916 5920 5917 5915 5910 5913 5911
5898 5897 5899 5898 5900 5900 5894 5895 5893 5894 5893 5890 5890 5888 5888 5891 5891 5897 5895 5895 5894 5895 5895 5896 5896 5895 5896 5897 5899 5902 5905 5905 5907 5907 5908 5908 5908 5910 5913 5916 5916 5915 5915 5917 5920 5916 5912 5909 5914
5899 5897 5895 5894 5897 5899 5896 5894 5893 5892 5891 5890 5888 5887 5886 5888 5888 5886 5888 5891 5891 5892 5893 5895 5895 5894 5894 5895 5897 5901 5903 5904 5906 5908 5906 5906 5909 5909 5913 5915 5916 5917 5915 5916 5916 5921 5918 5914 5917
5897 5897 5897 5896 5896 5895 5895 5895 5893 5890 5888 5886 5885 5886 5886 5889 5890 5889 5891 5891 5892 5893 5892 5893 5893 5893 5892 5892 5894 5898 5901 5902 5905 5906 5908 5908 5908 5909 5913 5913 5916 5916 5917 5916 5916 5918 5920 5919 5918
5894 5897 5894 5895 5892 5891 5895 5895 5892 5890 5889 5887 5884 5885 5883 5887 5889 5889 5891 5891 5890 5891 5891 5891 5892 5891 5891 5891 5892 5895 5898 5900 5905 5905 5909 5912 5909 5913 5912 5913 5915 5915 5915 5919 5919 5916 5922 5920 5920
5897 5898 5896 5894 5890 5892 5891 5891 5892 5890 5883 5888 5886 5886 5884 5884 5887 5888 5890 5888 5889 5891 5891 5891 5891 5890 5890 5891 5892 5894 5898 5900 5905 5907 5912 5914 5912 5912 5911 5914 5917 5919 5920 5921 5922 5921 5924 5921 5923
5895 5895 5896 5897 5889 5891 5893 5891 5888 5888 5890 5890 5887 5883 5885 5885 5885 5886 5889 5890 5890 5890 5890 5890 5890 5890 5891 5892 5894 5897 5899 5899 5902 5906 5911 5912 5915 5915 5915 5917 5920 5922 5922 5923 5924 5923 5924 5924 5924
5894 5893 5896 5896 5894 5891 5891 5891 5888 5887 5889 5887 5888 5882 5884 5883 5883 5884 5884 5888 5889 5890 5889 5890 5889 5890 5892 5895 5895 5897 5897 5897 5900 5903 5910 5911 5912 5916 5917 5919 5923 5923 5923 5923 5923 5926 5926 5924 5924
5892 5892 5892 5891 5890 5889 5891 5889 5887 5885 5885 5887 5884 5882 5879 5882 5879 5880 5883 5886 5888 5889 5890 5889 5889 5889 5893 5896 5896 5896 5897 5899 5900 5901 5907 5910 5912 5915 5917 5919 5919 5920 5921 5922 5921 5925 5924 5924 5925
5889 5889 5888 5887 5887 5886 5887 5884 5884 5883 5879 5882 5879 5880 5882 5880 5879 5878 5880 5886 5887 5888 5889 5888 5889 5889 5892 5895 5897 5897 5898 5900 5901 5902 5905 5908 5911 5914 5916 5918 5918 5920 5923 5924 5924 5925 5925 5925 5928
5886 5885 5885 5884 5884 5884 5882 5881 5878 5881 5878 5877 5879 5879 5882 5882 5877 5879 5880 5883 5885 5887 5888 5887 5888 5889 5891 5894 5897 5898 5899 5899 5900 5901 5904 5908 5909 5910 5913 5914 5918 5921 5923 5924 5925 5926 5927 5926 5931
5882 5880 5880 5881 5880 5877 5879 5879 5880 5881 5876 5873 5876 5877 5881 5876 5873 5879 5879 5881 5885 5885 5886 5886 5886 5887 5890 5893 5896 5898 5898 5899 5898 5900 5902 5906 5910 5911 5914 5916 5915 5917 5919 5921 5925 5925 5927 5928 5928
5877 5876 5876 5876 5876 5876 5877 5875 5878 5876 5871 5871 5872 5873 5870 5870 5873 5874 5876 5879 5882 5882 5883 5883 5885 5887 5887 5890 5894 5897 5897 5898 5899 5899 5903 5904 5907 5910 5913 5916 5915 5916 5919 5921 5924 5925 5925 5927 5928
5874 5871 5874 5872 5873 5874 5874 5874 5868 5872 5868 5868 5870 5867 5864 5864 5869 5873 5874 5873 5875 5881 5881 5881 5884 5885 5886 5887 5890 5894 5895 5897 5898 5898 5898 5902 5905 5908 5909 5911 5912 5913 5917 5918 5920 5924 5924 5922 5925
5868 5870 5869 5869 5870 5870 5873 5875 5871 5873 5871 5871 5869 5867 5856 5862 5866 5868 5870 5871 5872 5876 5877 5880 5881 5883 5884 5885 5886 5890 5891 5894 5896 5897 5896 5899 5901 5902 5904 5905 5908 5910 5913 5917 5917 5920 5922 5920 5921
5866 5865 5866 5866 5865 5865 5866 5870 5872 5872 5872 5872 5868 5870 5864 5868 5867 5866 5869 5870 5869 5872 5875 5876 5879 5880 5881 5882 5883 5885 5889 5891 5892 5893 5894 5896 5899 5900 5900 5901 5904 5905 5908 5911 5913 5915 5918 5919 5920
5862 5862 5862 5862 5865 5863 5863 5867 5868 5869 5867 5870 5869 5867 5869 5867 5868 5865 5868 5866 5866 5866 5869 5872 5874 5876 5878 5879 5880 5882 5885 5888 5891 5891 5892 5894 5895 5897 5898 5899 5901 5904 5905 5906 5909 5911 5913 5915 5915